Location: Chrząstowo
(52.0654°N, 17.1290°E)
Time: 21:27:03
(UTC+01:00)

Envisat - Pass Details

Date: 12 December 2019
Orbit: 764 x 766 km, 98.1° (Epoch: 22 January)

Event Time Altitude Azimuth Distance (km) Brightness Sun altitude
Rises 19:03:39 0° 210° (SSW) 3,224 6.6 -29.9°
Reaches altitude 10° 19:06:40 10° 229° (SW) 2,304 6.0 -30.4°
Maximum altitude 19:10:07 18° 272° (W) 1,807 5.6 -30.9°
Drops below altitude 10° 19:13:36 10° 315° (NW) 2,316 6.0 -31.5°
Sets 19:16:39 0° 334° (NNW) 3,248 6.6 -31.9°
